| time (UTC) | temp F | wind direction | speed MPH | gust MPH | rain 1hr in | rain 24hr in | rain mn in | humidity % | barometer mb |
| 20260504040030 | 45 | 69 | 6.0 | 9.0 | 0.00 | 0.00 | 0.00 | 43 | 1017.7 |
| 20260504034551 | 46 | 65 | 6.0 | 9.0 | 0.00 | 0.00 | 0.00 | 43 | 1017.7 |
| 20260504033029 | 46 | 78 | 5.0 | 8.0 | 0.00 | 0.00 | 0.00 | 41 | 1017.6 |
| 20260504031532 | 47 | 68 | 6.0 | 10.0 | 0.00 | 0.00 | 0.00 | 40 | 1017.5 |
| 20260504030042 | 48 | 70 | 6.0 | 9.0 | 0.00 | 0.00 | 0.00 | 39 | 1017.5 |
| 20260504024530 | 49 | 74 | 5.0 | 8.0 | 0.00 | 0.00 | 0.00 | 37 | 1017.3 |
| 20260504023033 | 50 | 59 | 4.0 | 8.0 | 0.00 | 0.00 | 0.00 | 35 | 1017.1 |
| 20260504021534 | 51 | 37 | 3.0 | 5.0 | 0.00 | 0.00 | 0.00 | 34 | 1017.1 |
| 20260504020031 | 53 | 333 | 4.0 | 6.0 | 0.00 | 0.00 | 0.00 | 32 | 1017.1 |
| 20260504014541 | 56 | 293 | 4.0 | 8.0 | 0.00 | 0.00 | 0.00 | 29 | 1016.9 |
| 20260504013033 | 57 | 273 | 5.0 | 11.0 | 0.00 | 0.00 | 0.00 | 26 | 1016.9 |
| 20260504011528 | 59 | 265 | 6.0 | 13.0 | 0.00 | 0.00 | 0.00 | 24 | 1016.9 |
| 20260504010030 | 61 | 249 | 9.0 | 16.0 | 0.00 | 0.00 | 0.00 | 23 | 1017.0 |
| 20260504004533 | 62 | 244 | 11.0 | 18.0 | 0.00 | 0.00 | 0.00 | 23 | 1017.0 |
| 20260504003036 | 62 | 254 | 7.0 | 18.0 | 0.00 | 0.00 | 0.00 | 23 | 1017.0 |
| 20260504001532 | 63 | 234 | 12.0 | 16.0 | 0.00 | 0.00 | 0.00 | 23 | 1017.0 |
| 20260504000030 | 64 | 242 | 8.0 | 21.0 | 0.00 | 0.00 | 0.00 | 23 | 1017.1 |
| 20260503234538 | 61 | 212 | 9.0 | 16.0 | 0.00 | 0.00 | 0.00 | 25 | 1017.3 |
| 20260503233028 | 60 | 241 | 14.0 | 25.0 | 0.00 | 0.00 | 0.00 | 26 | 1017.5 |
| 20260503231534 | 60 | 232 | 13.0 | 21.0 | 0.00 | 0.00 | 0.00 | 24 | 1017.4 |
| 20260503230038 | 61 | 225 | 12.0 | 28.0 | 0.00 | 0.00 | 0.00 | 24 | 1017.7 |
| 20260503224531 | 60 | 238 | 12.0 | 22.0 | 0.00 | 0.00 | 0.00 | 25 | 1017.9 |
| 20260503223030 | 62 | 249 | 13.0 | 21.0 | 0.00 | 0.00 | 0.00 | 24 | 1017.9 |
| 20260503221539 | 61 | 229 | 8.0 | 13.0 | 0.00 | 0.00 | 0.00 | 25 | 1018.1 |
| 20260503220030 | 60 | 190 | 7.0 | 13.0 | 0.00 | 0.00 | 0.00 | 27 | 1018.4 |
| 20260503214533 | 61 | 215 | 7.0 | 20.0 | 0.00 | 0.00 | 0.00 | 27 | 1018.5 |
| 20260503213041 | 61 | 210 | 9.0 | 17.0 | 0.00 | 0.00 | 0.00 | 28 | 1018.9 |
| 20260503211531 | 61 | 190 | 5.0 | 15.0 | 0.00 | 0.00 | 0.00 | 28 | 1019.1 |
| 20260503210031 | 60 | 210 | 7.0 | 14.0 | 0.00 | 0.00 | 0.00 | 30 | 1019.4 |
| 20260503204544 | 60 | 229 | 9.0 | 20.0 | 0.00 | 0.00 | 0.00 | 27 | 1019.6 |
| 20260503203031 | 62 | 217 | 10.0 | 19.0 | 0.00 | 0.00 | 0.00 | 24 | 1019.6 |
| 20260503201530 | 62 | 248 | 7.0 | 13.0 | 0.00 | 0.00 | 0.00 | 25 | 1019.7 |
| 20260503200034 | 60 | 223 | 8.0 | 18.0 | 0.00 | 0.00 | 0.00 | 29 | 1020.2 |
| 20260503194529 | 60 | 245 | 11.0 | 23.0 | 0.00 | 0.00 | 0.00 | 27 | 1020.2 |
| 20260503193042 | 61 | 236 | 9.0 | 18.0 | 0.00 | 0.00 | 0.00 | 27 | 1020.4 |
| 20260503191530 | 60 | 305 | 8.0 | 16.0 | 0.00 | 0.00 | 0.00 | 28 | 1020.6 |
| 20260503190034 | 59 | 242 | 3.0 | 12.0 | 0.00 | 0.00 | 0.00 | 29 | 1020.7 |
| 20260503184537 | 58 | 213 | 6.0 | 14.0 | 0.00 | 0.00 | 0.00 | 30 | 1021.0 |
| 20260503183035 | 59 | 232 | 5.0 | 12.0 | 0.00 | 0.00 | 0.00 | 31 | 1021.2 |
| 20260503181529 | 59 | 219 | 4.0 | 13.0 | 0.00 | 0.00 | 0.00 | 29 | 1021.2 |
| 20260503180040 | 59 | 213 | 7.0 | 12.0 | 0.00 | 0.00 | 0.00 | 30 | 1021.5 |
| 20260503174533 | 60 | 192 | 7.0 | 11.0 | 0.00 | 0.00 | 0.00 | 30 | 1021.7 |
| 20260503173042 | 60 | 173 | 7.0 | 19.0 | 0.00 | 0.00 | 0.00 | 30 | 1022.0 |
| 20260503171531 | 59 | 205 | 6.0 | 11.0 | 0.00 | 0.00 | 0.00 | 31 | 1022.3 |
| 20260503081530 | 37 | 67 | 5.0 | 8.0 | 0.00 | 0.00 | 0.00 | 54 | 1023.3 |
| 20260503071534 | 39 | 68 | 3.0 | 5.0 | 0.00 | 0.00 | 0.00 | 50 | 1023.7 |
| 20260503054536 | 40 | 73 | 5.0 | 8.0 | 0.00 | 0.00 | 0.00 | 49 | 1023.7 |
| 20260503053036 | 41 | 80 | 5.0 | 8.0 | 0.00 | 0.00 | 0.00 | 48 | 1023.7 |
| 20260503051531 | 41 | 79 | 5.0 | 9.0 | 0.00 | 0.00 | 0.00 | 48 | 1023.7 |
| 20260503050032 | 41 | 82 | 7.0 | 10.0 | 0.00 | 0.00 | 0.00 | 47 | 1023.6 |
| 20260503044530 | 42 | 69 | 6.0 | 11.0 | 0.00 | 0.00 | 0.00 | 47 | 1023.6 |
| 20260503043033 | 43 | 77 | 6.0 | 9.0 | 0.00 | 0.00 | 0.00 | 46 | 1023.4 |
| 20260503041532 | 44 | 79 | 5.0 | 8.0 | 0.00 | 0.00 | 0.00 | 44 | 1023.4 |